Home > Weather > Steinbach > Past weeks

Flag for Canada Past Weather in Steinbach, Manitoba, Canada — Yesterday and Last 2 Weeks

Now
52 °F

Cool.


Feels Like: 52 °F
Forecast: 46 / 71 °F
Wind: 2 mph from Southwest

Location: Winnipeg The Forks Man

Current Time: Jul 1, 2016 at 6:47:33 AM

Latest Report: Jul 1, 2016 at 6:00 AM


Visibility: N/A

Pressure: 30.19 "Hg

Humidity: 83%

Dew Point: 46 °F

Location of SteinbachLocation

Past Weather in Steinbach — Graph

°F

Steinbach Temperature Yesterday

Maximum temperature yesterday: 66 °F (at 7:00 PM)
Minimum temperature yesterday: 53 °F (at 6:00 AM)
Average temperature yesterday: 58 °F

High & Low Weather Summary for the Past Weeks

 TemperatureHumidityPressure
High82 °F (Jun 19, 5:00 PM)95% (Jun 19, 6:00 AM)30.27 "Hg (Jun 19, 6:00 AM)
Low51 °F (Jun 27, 6:00 AM)28% (Jun 19, 7:00 PM)29.55 "Hg (Jun 26, 3:00 AM)
Average67 °F62%29.96 "Hg
* Reported Jun 16 5:00 AM — Jul 1 5:00 AM, Steinbach, Weather by CustomWeather, © 2016

Note: Actual official high and low records may vary slightly from our data, if they occured in-between our weather recording intervals... More about our weather records

Advertising

Steinbach Weather History for the Previous 24 Hours

Scroll right to see more
 ConditionsComfort  
Time TempWeatherWind HumidityBarometerVisibility
5:00 AM
Fri, Jul 1
52 °FCool.2 mph81%30.19 "HgN/A
4:00 AM51 °FCool.1 mph81%30.20 "HgN/A
3:00 AM54 °FCool.1 mph70%30.21 "HgN/A
2:00 AM57 °FRefreshingly cool.1 mph59%30.22 "HgN/A
1:00 AM55 °FCool.No wind67%30.21 "HgN/A
12:00 AM58 °FRefreshingly cool.1 mph57%30.20 "HgN/A
11:00 PM
Thu, Jun 30
58 °FCool.1 mph61%30.19 "HgN/A
10:00 PM60 °FRefreshingly cool.1 mph51%30.18 "HgN/A
9:00 PM64 °FMild.2 mph39%30.17 "HgN/A
8:00 PM64 °FMild.5 mph40%30.18 "HgN/A
7:00 PM66 °FMild.6 mph42%30.19 "HgN/A
6:00 PM65 °FMild.6 mph42%30.19 "HgN/A
5:00 PM64 °FMild.7 mph50%30.22 "HgN/A
4:00 PM63 °FMild.7 mph55%30.22 "HgN/A
3:00 PM61 °FRefreshingly cool.8 mph56%30.22 "HgN/A
2:00 PM59 °FCool.9 mph65%30.21 "HgN/A
1:00 PM57 °FCool.9 mph69%30.22 "HgN/A
12:00 PM58 °FCool.8 mph65%30.20 "HgN/A
11:00 AM56 °FCool.9 mph70%30.19 "HgN/A
10:00 AM55 °FCool.7 mph71%30.19 "HgN/A
9:00 AM54 °FCool.5 mph72%30.18 "HgN/A
8:00 AM54 °FCool.7 mph68%30.16 "HgN/A
7:00 AM53 °FCool.7 mph69%30.15 "HgN/A
6:00 AM53 °FCool.8 mph73%30.13 "HgN/A
Weather by CustomWeather, © 2016

See weather overviewHow to use our weather pages